Weather History for Goldsboro, NC

Change the Weather History Date:

Sunday, June 8, 2014

  Actual Average (KGSB) Record (KGSB)
Temperature  
Mean Temperature 74 °F -  
Max Temperature 87 °F 84 °F 101 °F (2008)
Min Temperature 62 °F 65 °F 57 °F (1997)
Cooling Degree Days 10    
Growing Degree Days 24 (Base 50)    
Moisture  
Dew Point 61 °F    
Average Humidity 66    
Maximum Humidity 100    
Minimum Humidity 40    
Precipitation  
Precipitation 0.00 in - - ()
Sea Level Pressure  
Sea Level Pressure 29.97 in    
Wind  
Wind Speed 4 mph (SSE)    
Max Wind Speed 10 mph    
Max Gust Speed 16 mph    
Visibility 10 miles    
Events      
Averages and records for this station are not official NWS values.
T = Trace of Precipitation, MM = Missing Value Source: NWS Daily Summary

Daily Weather History Graph

Daily Weather History Graph

Search for Another Location

Airport:

Trip Planner

Search our weather history database for the weather conditions in past years. The results will help you decide how hot, cold, wet, or windy it might be!

Date:

Astronomy

Jun. 08, 2014 Rise Set
Actual Time 5:56 AM EDT 8:25 PM EDT
Civil Twilight 5:26 AM EDT 8:55 PM EDT
Nautical Twilight 4:49 AM EDT 9:32 PM EDT
Astronomical Twilight 4:09 AM EDT 10:12 PM EDT
Moon 3:50 PM EDT (6/8) 2:38 AM EDT (6/8)
Length of Visible Light 15h 28m
Length of Day
14h 29m
Waxing Gibbous, 77% of the Moon is Illuminated
Jun 8
Waxing Gibbous
Jun 13
Full
Jun 19
Last Quarter
Jun 27
New
Jul 5
First Quarter

Hourly Weather History & Observations

Time (EDT) Temp. Heat Index Dew Point Humidity Pressure Visibility Wind Dir Wind Speed Gust Speed Precip Events Conditions
12:15 AM 68.0 °F - 62.6 °F 83% 30.01 in 10.0 mi South 3.5 mph - N/A   Clear
12:35 AM 67.1 °F - 62.8 °F 86% 30.01 in 10.0 mi Calm Calm - N/A   Clear
12:55 AM 66.4 °F - 62.8 °F 88% 30.01 in 10.0 mi South 3.5 mph - N/A   Clear
1:15 AM 65.5 °F - 63.3 °F 93% 30.01 in 10.0 mi Calm Calm - N/A   Clear
1:35 AM 64.8 °F - 63.7 °F 96% 30.01 in 10.0 mi Calm Calm - N/A   Clear
2:15 AM 63.7 °F - 63.0 °F 97% 30.00 in 10.0 mi Calm Calm - N/A   Clear
2:35 AM 63.5 °F - 63.3 °F 99% 29.99 in 10.0 mi Calm Calm - N/A   Clear
2:55 AM 62.8 °F - 62.6 °F 99% 29.99 in 10.0 mi SE 3.5 mph - N/A   Clear
3:15 AM 63.5 °F - 63.5 °F 100% 29.99 in 10.0 mi Calm Calm - N/A   Clear
3:35 AM 63.0 °F - 63.0 °F 100% 29.99 in 10.0 mi Calm Calm - N/A   Clear
3:55 AM 62.4 °F - 62.4 °F 100% 29.98 in 10.0 mi Calm Calm - N/A   Clear
4:15 AM 62.6 °F - 62.6 °F 100% 29.98 in 10.0 mi Calm Calm - N/A   Clear
4:35 AM 62.2 °F - 62.2 °F 100% 29.98 in 10.0 mi Calm Calm - N/A   Clear
5:15 AM 63.3 °F - 63.3 °F 100% 29.99 in 10.0 mi Calm Calm - N/A   Mostly Cloudy
5:35 AM 64.0 °F - 64.0 °F 100% 29.99 in 10.0 mi Calm Calm - N/A   Overcast
5:55 AM 64.0 °F - 64.0 °F 100% 29.99 in 10.0 mi Calm Calm - N/A   Mostly Cloudy
6:15 AM 64.9 °F - 64.8 °F 99% 30.00 in 10.0 mi Calm Calm - N/A   Overcast
6:35 AM 64.4 °F - 64.4 °F 100% 30.00 in 10.0 mi Calm Calm - N/A   Mostly Cloudy
6:55 AM 64.9 °F - 64.9 °F 100% 30.00 in 10.0 mi Calm Calm - N/A   Mostly Cloudy
7:15 AM 66.2 °F - 65.7 °F 98% 30.00 in 10.0 mi Calm Calm - N/A   Scattered Clouds
7:35 AM 68.2 °F - 65.3 °F 90% 30.01 in 10.0 mi Calm Calm - N/A   Clear
7:55 AM 70.0 °F - 65.3 °F 85% 30.01 in 10.0 mi South 3.5 mph - N/A   Clear
8:15 AM 71.6 °F - 65.7 °F 81% 30.02 in 10.0 mi South 3.5 mph - N/A   Clear
8:35 AM 73.4 °F - 64.6 °F 74% 30.02 in 10.0 mi South 4.6 mph - N/A   Clear
8:55 AM 75.2 °F - 63.3 °F 66% 30.01 in 10.0 mi South 5.8 mph - N/A   Clear
9:15 AM 76.1 °F - 58.3 °F 54% 30.01 in 10.0 mi South 5.8 mph - N/A   Clear
9:35 AM 76.8 °F - 58.3 °F 53% 30.02 in 10.0 mi SSE 8.1 mph - N/A   Clear
9:55 AM 77.7 °F - 58.1 °F 51% 30.01 in 10.0 mi ESE 5.8 mph - N/A   Clear
10:15 AM 78.4 °F - 58.1 °F 50% 30.00 in 10.0 mi SSE 4.6 mph - N/A   Clear
10:35 AM 79.5 °F - 59.2 °F 50% 30.01 in 10.0 mi SSE 9.2 mph - N/A   Clear
10:55 AM 80.1 °F 81.0 °F 60.4 °F 51% 30.00 in 10.0 mi SSE 8.1 mph - N/A   Clear
11:15 AM 80.8 °F 81.4 °F 59.7 °F 49% 30.00 in 10.0 mi SSE 5.8 mph - N/A   Clear
11:35 AM 81.7 °F 82.3 °F 60.6 °F 49% 30.00 in 10.0 mi SE 4.6 mph - N/A   Clear
11:55 AM 81.9 °F 82.3 °F 60.6 °F 48% 30.00 in 10.0 mi South 5.8 mph - N/A   Clear
12:15 PM 82.4 °F 82.6 °F 59.7 °F 46% 29.99 in 10.0 mi SSE 6.9 mph - N/A   Clear
12:35 PM 83.3 °F 83.4 °F 59.7 °F 45% 29.99 in 10.0 mi SSE 4.6 mph - N/A   Clear
12:55 PM 83.7 °F 83.3 °F 58.6 °F 42% 29.98 in 10.0 mi South 6.9 mph - N/A   Clear
1:15 PM 85.1 °F 84.8 °F 59.4 °F 42% 29.98 in 10.0 mi South 6.9 mph - N/A   Clear
1:35 PM 85.5 °F 85.0 °F 59.0 °F 41% 29.97 in 10.0 mi SSE 6.9 mph - N/A   Clear
1:55 PM 85.5 °F 85.2 °F 59.9 °F 42% 29.95 in 10.0 mi SE 8.1 mph - N/A   Clear
2:15 PM 86.0 °F 85.9 °F 60.4 °F 42% 29.95 in 10.0 mi South 10.4 mph 16.1 mph N/A   Clear
2:40 PM 86.5 °F 86.5 °F 60.6 °F 42% 29.94 in 10.0 mi SSE 10.4 mph - N/A   Clear
3:20 PM 87.4 °F 87.2 °F 60.6 °F 40% 29.93 in 10.0 mi SE 9.2 mph - N/A   Clear
3:35 PM 87.6 °F 87.7 °F 61.2 °F 41% 29.93 in 10.0 mi SE 5.8 mph - N/A   Scattered Clouds
3:55 PM 84.4 °F 84.6 °F 60.8 °F 45% 29.93 in 10.0 mi South 5.8 mph - N/A   Mostly Cloudy
4:15 PM 83.5 °F 83.7 °F 60.8 °F 46% 29.93 in 10.0 mi South 6.9 mph - N/A   Mostly Cloudy
4:35 PM 86.4 °F 86.3 °F 61.0 °F 42% 29.93 in 10.0 mi South 10.4 mph - N/A   Scattered Clouds
4:55 PM 84.2 °F 84.4 °F 60.6 °F 45% 29.93 in 10.0 mi South 9.2 mph - N/A   Scattered Clouds
5:15 PM 83.5 °F 83.7 °F 61.0 °F 46% 29.92 in 10.0 mi South 6.9 mph - N/A   Clear
5:35 PM 83.3 °F 83.7 °F 61.0 °F 47% 29.91 in 10.0 mi South 8.1 mph - N/A   Clear
5:55 PM 82.8 °F 83.3 °F 61.3 °F 48% 29.91 in 10.0 mi South 9.2 mph - N/A   Scattered Clouds
6:15 PM 82.2 °F 82.9 °F 61.5 °F 49% 29.91 in 10.0 mi South 10.4 mph - N/A   Scattered Clouds
6:35 PM 81.5 °F 82.4 °F 61.7 °F 51% 29.90 in 10.0 mi South 8.1 mph - N/A   Mostly Cloudy
6:55 PM 81.0 °F 81.9 °F 61.7 °F 52% 29.90 in 10.0 mi South 5.8 mph - N/A   Overcast
7:15 PM 80.4 °F 81.3 °F 61.0 °F 51% 29.90 in 10.0 mi South 9.2 mph - N/A   Scattered Clouds
7:35 PM 79.7 °F - 61.3 °F 53% 29.90 in 10.0 mi South 6.9 mph - N/A   Clear
7:55 PM 78.8 °F - 61.0 °F 54% - 10.0 mi South 5.8 mph - N/A   Clear
8:15 PM 77.5 °F - 61.3 °F 57% 29.90 in 10.0 mi South 8.1 mph - N/A   Clear
8:35 PM 77.0 °F - 61.2 °F 58% 29.91 in 10.0 mi South 5.8 mph - N/A   Clear
8:55 PM 76.3 °F - 60.3 °F 57% 29.91 in 10.0 mi South 5.8 mph - N/A   Clear
9:15 PM 75.0 °F - 60.8 °F 61% 29.93 in 10.0 mi SSE 3.5 mph - N/A   Clear
9:35 PM 74.3 °F - 60.6 °F 62% 29.93 in 10.0 mi SSE 6.9 mph - N/A   Clear
9:55 PM 73.8 °F - 60.4 °F 63% 29.94 in 10.0 mi South 4.6 mph - N/A   Clear
10:15 PM 73.6 °F - 59.4 °F 61% 29.93 in 10.0 mi South 5.8 mph - N/A   Scattered Clouds
10:35 PM 73.6 °F - 58.5 °F 59% 29.95 in 10.0 mi South 6.9 mph - N/A   Scattered Clouds
10:55 PM 73.6 °F - 57.6 °F 57% 29.95 in 10.0 mi South 6.9 mph - N/A   Overcast
11:15 PM 73.4 °F - 56.5 °F 55% 29.95 in 10.0 mi South 6.9 mph - N/A   Overcast
11:35 PM 72.9 °F - 56.8 °F 57% 29.95 in 10.0 mi South 8.1 mph - N/A   Overcast
11:55 PM 72.1 °F - 56.5 °F 58% 29.94 in 10.0 mi South 5.8 mph - N/A   Mostly Cloudy